User: anonymous   Login
Location: Unspecified
(0.0000°N, 0.0000°E)
Time: 18:49:49
(UTC+00:00)
Language:

COSMOS-2414 - Orbit

View from above orbital plane
View from above orbital plane
View from above satellite
View from above satellite

Ground track
Ground track

The orbit data is extracted from the following two-line orbital elements,

1 28521U 05002A   17145.92739237 +.00000014 +00000-0 -14860-5 0  9995
2 28521 082.9519 025.6460 0041581 043.7412 316.7025 13.87585740625192
Epoch (UTC): 25 May 2017 22:15:26
Eccentricity: 0.0041581
inclination: 82.9519°
perigee height: 906 km
apogee height: 967 km
right ascension of ascending node: 25.6460°
argument of perigee: 43.7412°
revolutions per day: 13.87585740
mean anomaly at epoch: 316.7025°
orbit number at epoch: 62519

The dashed part of the orbit path shows where the satellite is in the earth's shadow,  

DLR